• In Hungary
  • List of Countries
  • For 7 days
  • Water Temperature
  • Satellite Maps
  • Weather Map
  • News
  • Weather Widgets
  • user-avatar
    Login

    Hourly Weather Novaya Vodolaga

    Today, 24 September, Monday

    Time Temperature Precipitation Wind Pressure Humidity
    00:00 +10°C° 0 mm 2 mps 752 mmHg 76%
    01:00 +10°C° 0 mm 2 mps 752 mmHg 77%
    02:00 +9°C° 0 mm 2 mps 752 mmHg 78%
    03:00 +9°C° 0 mm 2 mps 752 mmHg 78%
    04:00 +9°C° 0 mm 2 mps 752 mmHg 79%
    05:00 +9°C° 0 mm 2 mps 751 mmHg 80%
    06:00 +10°C° 0 mm 4 mps 751 mmHg 74%
    07:00 +12°C° 0 mm 5 mps 751 mmHg 67%
    08:00 +13°C° 0 mm 6 mps 750 mmHg 61%
    09:00 +15°C° 0 mm 7 mps 750 mmHg 56%
    10:00 +16°C° 0 mm 7 mps 749 mmHg 51%
    11:00 +17°C° 0 mm 8 mps 749 mmHg 46%
    12:00 +18°C° 0 mm 8 mps 748 mmHg 44%
    13:00 +20°C° 0 mm 8 mps 747 mmHg 42%
    14:00 +20°C° 0 mm 8 mps 746 mmHg 40%
    15:00 +18°C° 0.8 mm 7 mps 746 mmHg 48%
    16:00 +18°C° 0.8 mm 7 mps 745 mmHg 55%
    17:00 +17°C° 0.8 mm 6 mps 744 mmHg 62%
    18:00 +16°C° 1.8 mm 6 mps 744 mmHg 69%
    19:00 +15°C° 1.8 mm 6 mps 744 mmHg 75%
    20:00 +14°C° 1.8 mm 6 mps 744 mmHg 82%
    21:00 +13°C° 1.3 mm 6 mps 745 mmHg 82%
    22:00 +11°C° 1.3 mm 6 mps 745 mmHg 83%
    23:00 +10°C° 1.3 mm 6 mps 745 mmHg 83%

    Tomorrow, 25 September, Tuesday

    Time Temperature Precipitation Wind Pressure Humidity
    00:00 +10°C° 0.2 mm 6 mps 745 mmHg 82%
    01:00 +9°C° 0.2 mm 5 mps 746 mmHg 81%
    02:00 +9°C° 0.2 mm 5 mps 746 mmHg 80%
    03:00 +9°C° 0 mm 5 mps 746 mmHg 82%
    04:00 +8°C° 0 mm 5 mps 747 mmHg 85%
    05:00 +8°C° 0 mm 4 mps 747 mmHg 87%
    06:00 +8°C° 0 mm 5 mps 747 mmHg 84%
    07:00 +9°C° 0 mm 5 mps 748 mmHg 81%
    08:00 +9°C° 0 mm 5 mps 748 mmHg 78%
    09:00 +10°C° 0.1 mm 6 mps 748 mmHg 75%
    10:00 +10°C° 0.1 mm 6 mps 748 mmHg 72%
    11:00 +11°C° 0.1 mm 6 mps 748 mmHg 69%
    12:00 +11°C° 0.3 mm 6 mps 749 mmHg 69%
    13:00 +11°C° 0.3 mm 6 mps 749 mmHg 69%
    14:00 +11°C° 0.3 mm 6 mps 749 mmHg 69%
    15:00 +10°C° 0.4 mm 6 mps 750 mmHg 70%
    16:00 +10°C° 0.4 mm 5 mps 750 mmHg 72%
    17:00 +9°C° 0.4 mm 5 mps 751 mmHg 73%
    18:00 +10°C° 0.1 mm 4 mps 752 mmHg 73%
    19:00 +10°C° 0.1 mm 4 mps 753 mmHg 73%
    20:00 +8°C° 0.1 mm 4 mps 753 mmHg 74%
    21:00 +7°C° 0 mm 4 mps 754 mmHg 75%
    22:00 +7°C° 0 mm 4 mps 754 mmHg 77%
    23:00 +7°C° 0 mm 3 mps 755 mmHg 79%

    Day after tomorrow, 26 September, Wednesday

    Time Temperature Precipitation Wind Pressure Humidity
    00:00 +5°C° 0 mm 3 mps 755 mmHg 81%
    01:00 +5°C° 0 mm 3 mps 756 mmHg 83%
    02:00 +4°C° 0 mm 3 mps 756 mmHg 85%
    03:00 +4°C° 0 mm 3 mps 757 mmHg 86%
    04:00 +4°C° 0 mm 3 mps 757 mmHg 86%
    05:00 +3°C° 0 mm 3 mps 758 mmHg 87%
    06:00 +4°C° 0 mm 3 mps 758 mmHg 83%
    07:00 +5°C° 0 mm 3 mps 759 mmHg 78%
    08:00 +6°C° 0 mm 4 mps 759 mmHg 73%
    09:00 +7°C° 0 mm 4 mps 759 mmHg 66%
    10:00 +10°C° 0 mm 4 mps 760 mmHg 60%
    11:00 +11°C° 0 mm 4 mps 760 mmHg 53%
    12:00 +11°C° 0.1 mm 4 mps 760 mmHg 50%
    13:00 +11°C° 0.1 mm 4 mps 760 mmHg 48%
    14:00 +12°C° 0.1 mm 4 mps 760 mmHg 45%
    15:00 +11°C° 0 mm 4 mps 760 mmHg 47%
    16:00 +10°C° 0 mm 3 mps 760 mmHg 49%
    17:00 +10°C° 0 mm 3 mps 760 mmHg 50%
    18:00 +9°C° 0 mm 3 mps 760 mmHg 53%
    19:00 +8°C° 0 mm 2 mps 761 mmHg 55%
    20:00 +7°C° 0 mm 2 mps 761 mmHg 57%
    21:00 +6°C° 0 mm 2 mps 761 mmHg 58%
    22:00 +6°C° 0 mm 2 mps 761 mmHg 59%
    23:00 +5°C° 0 mm 2 mps 761 mmHg 60%

    27 September, Thursday

    Time Temperature Precipitation Wind Pressure Humidity
    00:00 +5°C° 0 mm 2 mps 761 mmHg 61%
    01:00 +5°C° 0 mm 2 mps 761 mmHg 62%
    02:00 +4°C° 0 mm 3 mps 760 mmHg 63%
    03:00 +3°C° 0 mm 3 mps 760 mmHg 64%
    04:00 +3°C° 0 mm 3 mps 760 mmHg 65%
    05:00 +3°C° 0 mm 3 mps 759 mmHg 66%
    06:00 +5°C° 0 mm 4 mps 759 mmHg 62%
    07:00 +6°C° 0 mm 5 mps 759 mmHg 57%
    08:00 +8°C° 0 mm 6 mps 758 mmHg 53%
    09:00 +9°C° 0 mm 7 mps 758 mmHg 49%
    10:00 +10°C° 0 mm 7 mps 757 mmHg 46%
    11:00 +12°C° 0 mm 8 mps 757 mmHg 42%
    12:00 +12°C° 0 mm 8 mps 756 mmHg 41%
    13:00 +13°C° 0 mm 8 mps 756 mmHg 41%
    14:00 +15°C° 0 mm 8 mps 755 mmHg 40%
    15:00 +15°C° 0 mm 7 mps 755 mmHg 43%
    16:00 +14°C° 0 mm 6 mps 755 mmHg 47%
    17:00 +14°C° 0 mm 5 mps 755 mmHg 50%
    18:00 +13°C° 0 mm 5 mps 755 mmHg 52%
    19:00 +12°C° 0 mm 5 mps 755 mmHg 55%
    20:00 +12°C° 0 mm 5 mps 755 mmHg 57%
    21:00 +12°C° 0 mm 4 mps 755 mmHg 59%
    22:00 +11°C° 0 mm 4 mps 755 mmHg 61%
    23:00 +11°C° 0 mm 4 mps 755 mmHg 63%

    28 September, Friday

    Time Temperature Precipitation Wind Pressure Humidity
    00:00 +10°C° 0 mm 3 mps 755 mmHg 67%
    01:00 +10°C° 0 mm 3 mps 755 mmHg 70%
    02:00 +9°C° 0 mm 3 mps 755 mmHg 73%
    03:00 +9°C° 0 mm 3 mps 754 mmHg 76%
    04:00 +9°C° 0 mm 3 mps 754 mmHg 79%
    05:00 +9°C° 0 mm 3 mps 754 mmHg 82%
    06:00 +10°C° 0 mm 3 mps 754 mmHg 78%
    07:00 +11°C° 0 mm 3 mps 754 mmHg 74%
    08:00 +13°C° 0 mm 4 mps 754 mmHg 71%
    09:00 +14°C° 0 mm 4 mps 753 mmHg 66%
    10:00 +16°C° 0 mm 5 mps 753 mmHg 61%
    11:00 +19°C° 0 mm 6 mps 753 mmHg 57%
    12:00 +20°C° 0 mm 6 mps 752 mmHg 55%
    13:00 +21°C° 0 mm 6 mps 752 mmHg 54%
    14:00 +22°C° 0 mm 6 mps 752 mmHg 52%
    15:00 +21°C° 0 mm 5 mps 751 mmHg 56%
    16:00 +20°C° 0 mm 4 mps 751 mmHg 60%
    17:00 +19°C° 0 mm 3 mps 751 mmHg 64%
    18:00 +18°C° 0 mm 3 mps 751 mmHg 68%
    19:00 +17°C° 0 mm 3 mps 752 mmHg 73%
    20:00 +16°C° 0 mm 3 mps 752 mmHg 77%
    21:00 +16°C° 0 mm 2 mps 752 mmHg 79%
    22:00 +15°C° 0 mm 2 mps 752 mmHg 81%
    23:00 +15°C° 0 mm 2 mps 752 mmHg 83%

    29 September, Saturday

    Time Temperature Precipitation Wind Pressure Humidity
    00:00 +15°C° 0 mm 2 mps 752 mmHg 85%
    01:00 +14°C° 0 mm 2 mps 753 mmHg 87%
    02:00 +14°C° 0 mm 2 mps 753 mmHg 90%
    03:00 +14°C° 0 mm 2 mps 753 mmHg 89%
    04:00 +14°C° 0 mm 2 mps 753 mmHg 88%
    05:00 +14°C° 0 mm 2 mps 753 mmHg 87%
    06:00 +13°C° 0 mm 3 mps 754 mmHg 82%
    07:00 +13°C° 0 mm 3 mps 754 mmHg 77%
    08:00 +14°C° 0 mm 3 mps 754 mmHg 72%
    09:00 +14°C° 0 mm 3 mps 755 mmHg 68%
    10:00 +14°C° 0 mm 4 mps 755 mmHg 65%
    11:00 +14°C° 0 mm 4 mps 755 mmHg 62%
    12:00 +15°C° 0.1 mm 4 mps 755 mmHg 58%
    13:00 +15°C° 0.1 mm 4 mps 755 mmHg 54%
    14:00 +15°C° 0.1 mm 4 mps 755 mmHg 51%
    15:00 +15°C° 0 mm 4 mps 756 mmHg 51%
    16:00 +14°C° 0 mm 4 mps 756 mmHg 52%
    17:00 +14°C° 0 mm 4 mps 757 mmHg 52%
    18:00 +13°C° 0 mm 4 mps 757 mmHg 52%
    19:00 +12°C° 0 mm 5 mps 758 mmHg 51%
    20:00 +9°C° 0 mm 5 mps 759 mmHg 50%
    21:00 +9°C° 0 mm 5 mps 759 mmHg 51%
    22:00 +8°C° 0 mm 5 mps 759 mmHg 52%
    23:00 +7°C° 0 mm 5 mps 760 mmHg 53%
    Show more

    3.3.7123123